Prestwick, United Kingdom

2:48 AM BST on May 25, 2017 (GMT +0100)
Prestwick

Weather History for EGPK - April, 2014

Change the Weather History Date:

Sunday, April 13, 2014

  Actual Average Record
Temperature  
Mean Temperature 48 °F -  
Max Temperature 51 °F 54 °F 62 °F (2007)
Min Temperature 46 °F 41 °F 28 °F (1998)
Degree Days  
Heating Degree Days 16    
Moisture  
Dew Point 41 °F    
Average Humidity 78    
Maximum Humidity 87    
Minimum Humidity 66    
Precipitation  
Precipitation 0.00 in - - ()
Sea Level Pressure  
Sea Level Pressure 30.04 in    
Wind  
Wind Speed 18 mph ()    
Max Wind Speed 30 mph    
Max Gust Speed 45 mph    
Visibility 6.0 miles    
Events Rain    
Averages and records for this station are not official NWS values.
T = Trace of Precipitation, MM = Missing Value Source: Averaged Metar Reports

Daily Weather History Graph

Daily Weather History Graph

Search for Another Location

Airport or City:

Trip Planner

Search our weather history database for the weather conditions in past years. The results will help you decide how hot, cold, wet, or windy it might be!

Date:

Astronomy

Apr. 13, 2014 Rise Set
Actual Time 6:19 AM BST 8:19 PM BST
Civil Twilight 5:40 AM BST 8:59 PM BST
Nautical Twilight 4:50 AM BST 9:48 PM BST
Astronomical Twilight 3:53 AM BST 10:47 PM BST
Moon 6:28 PM BST (4/13) 5:30 AM BST (4/13)
Length of Visible Light 15h 18m
Length of Day
14h 00m
Waxing Gibbous, 96% of the Moon is Illuminated
Apr 13
Waxing Gibbous
Apr 15
Full
Apr 22
Last Quarter
Apr 29
New
May 7
First Quarter

Hourly Weather History & Observations

Time (BST) Temp. Windchill Dew Point Humidity Pressure Visibility Wind Dir Wind Speed Gust Speed Precip Events Conditions
12:20 AM 46.4 °F 40.4 °F 39.2 °F 76% 30.01 in 6.2 mi West 13.8 mph - N/A   Scattered Clouds
12:50 AM 46.4 °F 38.5 °F 39.2 °F 76% 30.01 in 6.2 mi West 21.9 mph - N/A   Scattered Clouds
1:50 AM 46.4 °F 37.2 °F 39.2 °F 76% 29.98 in 6.2 mi West 29.9 mph - N/A   Scattered Clouds
2:50 AM 46.4 °F 38.5 °F 39.2 °F 76% 30.01 in 6.2 mi West 21.9 mph - N/A   Scattered Clouds
3:50 AM 46.4 °F 38.7 °F 39.2 °F 76% 30.01 in 6.2 mi West 20.7 mph - N/A   Scattered Clouds
4:50 AM 46.4 °F 38.7 °F 39.2 °F 76% 30.01 in 6.2 mi West 20.7 mph - N/A   Scattered Clouds
5:50 AM 46.4 °F 39.8 °F 41.0 °F 81% 30.04 in 6.2 mi West 16.1 mph - N/A   Scattered Clouds
6:50 AM 46.4 °F 39.8 °F 39.2 °F 76% 30.04 in 6.2 mi West 16.1 mph - N/A   Mostly Cloudy
7:20 AM 46.4 °F 41.1 °F 42.8 °F 87% 30.06 in 6.2 mi WSW 11.5 mph - N/A   Scattered Clouds
7:50 AM 46.4 °F 41.5 °F 42.8 °F 87% 30.06 in 6.2 mi WSW 10.4 mph - N/A   Mostly Cloudy
8:20 AM 46.4 °F 40.4 °F 41.0 °F 81% 30.06 in 6.2 mi WSW 13.8 mph - N/A   Scattered Clouds
8:50 AM 46.4 °F 40.1 °F 42.8 °F 87% 30.06 in 6.2 mi WSW 15.0 mph - N/A   Mostly Cloudy
9:20 AM 46.4 °F 39.8 °F 42.8 °F 87% 30.06 in 6.2 mi WSW 16.1 mph - N/A   Scattered Clouds
9:50 AM 48.2 °F - 42.8 °F 82% 30.06 in 6.2 mi WSW 15.0 mph - N/A   Mostly Cloudy
10:20 AM 48.2 °F - 41.0 °F 76% 30.04 in 6.2 mi WSW 25.3 mph 38.0 mph N/A Rain Light Rain
10:50 AM 48.2 °F - 42.8 °F 82% 30.06 in 6.2 mi WSW 25.3 mph - N/A Rain Light Rain
11:20 AM 50.0 °F - 42.8 °F 76% 30.06 in 6.2 mi WSW 21.9 mph - N/A   Partly Cloudy
11:50 AM 51.8 °F - 42.8 °F 71% 30.06 in 6.2 mi WSW 26.5 mph - N/A   Partly Cloudy
12:20 PM 51.8 °F - 41.0 °F 67% 30.06 in 6.2 mi WSW 26.5 mph - N/A   Scattered Clouds
12:50 PM 48.2 °F - 41.0 °F 76% 30.06 in 6.2 mi WSW 11.5 mph - N/A   Mostly Cloudy
1:20 PM 48.2 °F - 41.0 °F 76% 30.06 in 6.2 mi WSW 15.0 mph - N/A   Mostly Cloudy
1:50 PM 50.0 °F - 39.2 °F 66% 30.04 in 6.2 mi West 25.3 mph - N/A   Mostly Cloudy
2:20 PM 48.2 °F - 41.0 °F 76% 30.04 in 5.6 mi WSW 13.8 mph - N/A Rain Light Rain
2:50 PM 48.2 °F - 42.8 °F 82% 30.04 in 5.6 mi WSW 16.1 mph - N/A Rain Light Rain
3:20 PM 48.2 °F - 42.8 °F 82% 30.04 in 5.6 mi WSW 13.8 mph - N/A Rain Light Rain
3:50 PM 48.2 °F - 42.8 °F 82% 30.01 in 5.6 mi WSW 20.7 mph - N/A Rain Light Rain
4:20 PM 48.2 °F - 42.8 °F 82% 30.01 in 5.0 mi West 25.3 mph 36.8 mph N/A Rain Light Rain
4:50 PM 48.2 °F - 44.6 °F 87% 30.01 in 5.0 mi WSW 26.5 mph - N/A Rain Light Rain
5:20 PM 48.2 °F - 44.6 °F 87% 30.01 in 4.3 mi WSW 25.3 mph - N/A Rain Light Rain
5:50 PM 48.2 °F - 42.8 °F 82% 30.01 in 6.2 mi West 28.8 mph 44.9 mph N/A Rain Light Rain
6:20 PM 48.2 °F - 42.8 °F 82% 30.01 in 6.2 mi West 19.6 mph - N/A   Scattered Clouds
6:50 PM 48.2 °F - 42.8 °F 82% 30.04 in 6.2 mi WNW 15.0 mph - N/A   Scattered Clouds
7:20 PM 50.0 °F - 39.2 °F 66% 30.01 in 6.2 mi WNW 25.3 mph - N/A   Scattered Clouds
7:50 PM 48.2 °F - 39.2 °F 71% 30.04 in 6.2 mi WNW 25.3 mph - N/A   Scattered Clouds
8:20 PM 48.2 °F - 39.2 °F 71% 30.04 in 6.2 mi WNW 24.2 mph - N/A   Scattered Clouds
8:50 PM 48.2 °F - 39.2 °F 71% 30.04 in 6.2 mi WNW 24.2 mph - N/A   Scattered Clouds
9:20 PM 48.2 °F - 39.2 °F 71% 30.04 in 6.2 mi WNW 20.7 mph - N/A   Scattered Clouds
9:50 PM 46.4 °F 37.4 °F 39.2 °F 76% 30.04 in 6.2 mi WNW 28.8 mph 41.4 mph N/A Rain Light Rain Showers
10:20 PM 46.4 °F 39.5 °F 41.0 °F 81% 30.06 in 6.2 mi West 17.3 mph 28.8 mph N/A   Scattered Clouds
10:50 PM 46.4 °F 38.3 °F 39.2 °F 76% 30.06 in 6.2 mi WNW 23.0 mph - N/A   Scattered Clouds
11:20 PM 46.4 °F 38.7 °F 39.2 °F 76% 30.06 in 6.2 mi WNW 20.7 mph - N/A   Scattered Clouds
11:50 PM 46.4 °F 39.0 °F 39.2 °F 76% 30.06 in 6.2 mi WNW 19.6 mph - N/A   Scattered Clouds